Tillbaka till svenska Fidonet
English   Information   Debug  
FILM   0/18
FNEWS_PUBLISH   4881
FN_SYSOP   42085
FN_SYSOP_OLD1   71952
FTP_FIDO   0/2
FTSC_PUBLIC   0/13950
FUNNY   0/4886
GENEALOGY.EUR   0/71
GET_INFO   105
GOLDED   0/408
HAM   9776/16617
HOLYSMOKE   0/6791
HOT_SITES   0/1
HTMLEDIT   0/71
HUB203   466
HUB_100   264
HUB_400   39
HUMOR   0/29
IC   2631/2851
INTERNET   0/424
INTERUSER   0/3
IP_CONNECT   719
JAMNNTPD   0/233
JAMTLAND   0/47
KATTY_KORNER   0/41
LAN   0/16
LINUX-USER   0/19
LINUXHELP   0/1155
LINUX   0/22287
LINUX_BBS   0/957
mail   18.68
mail_fore_ok   249
MENSA   0/341
MODERATOR   0/102
MONTE   0/992
MOSCOW_OKLAHOMA   0/1245
MUFFIN   0/783
MUSIC   0/321
N203_STAT   938
N203_SYSCHAT   313
NET203   321
NET204   69
NET_DEV   0/10
NORD.ADMIN   0/101
NORD.CHAT   0/2572
NORD.FIDONET   189
NORD.HARDWARE   0/28
NORD.KULTUR   0/114
NORD.PROG   0/32
NORD.SOFTWARE   0/88
NORD.TEKNIK   0/58
NORD   0/453
OCCULT_CHAT   0/93
OS2BBS   0/787
OS2DOSBBS   0/580
OS2HW   0/42
OS2INET   0/37
OS2LAN   0/134
OS2PROG   0/36
OS2REXX   0/113
OS2USER-L   207
OS2   0/4829
OSDEBATE   11799/18996
PASCAL   0/490
PERL   0/457
PHP   0/45
POINTS   0/405
POLITICS   0/29554
POL_INC   3180/14731
PSION   103
R20_ADMIN   1133
R20_AMATORRADIO   0/2
R20_BEST_OF_FIDONET   16
R20_CHAT   0/896
R20_DEPP   0/3
R20_DEV   400
R20_ECHO2   1789
R20_ECHOPRES   0/35
R20_ESTAT   0/719
R20_FIDONETPROG...
...RAM.MYPOINT
  0/2
R20_FIDONETPROGRAM   0/22
R20_FIDONET   0/248
R20_FILEFIND   0/24
R20_FILEFOUND   0/22
R20_HIFI   0/3
R20_INFO2   3681
R20_INTERNET   0/12940
R20_INTRESSE   0/60
R20_INTR_KOM   0/99
R20_KANDIDAT.CHAT   42
R20_KANDIDAT   28
R20_KOM_DEV   112
R20_KONTROLL   0/13360
R20_KORSET   0/18
R20_LOKALTRAFIK   0/24
R20_MODERATOR   0/1852
R20_NC   76
R20_NET200   245
R20_NETWORK.OTH...
...ERNETS
  0/13
R20_OPERATIVSYS...
...TEM.LINUX
  0/44
R20_PROGRAMVAROR   0/1
R20_REC2NEC   534
R20_SFOSM   0/341
R20_SF   0/108
R20_SPRAK.ENGLISH   0/1
R20_SQUISH   107
R20_TEST   2
R20_WORST_OF_FIDONET   20
RAR   0/9
RA_MULTI   106
RA_UTIL   0/162
REGCON.EUR   0/2067
REGCON   0/13
SCIENCE   0/1206
SF   0/239
SHAREWARE_SUPPORT   0/5146
SHAREWRE   0/14
SIMPSONS   0/169
STATS_OLD1   0/2539.065
STATS_OLD2   0/2530
STATS_OLD3   0/2395.095
STATS_OLD4   0/1692.25
SURVIVOR   0/495
SYSOPS_CORNER   0/3
SYSOP   0/84
TAGLINES   0/112
TEAMOS2   0/4530
TECH   0/2617
TEST.444   0/105
TRAPDOOR   0/19
TREK   0/755
TUB   0/290
UFO   0/40
UNIX   0/1316
USA_EURLINK   0/102
USR_MODEMS   0/1
VATICAN   0/2740
VIETNAM_VETS   0/14
VIRUS   0/378
VIRUS_INFO   0/201
VISUAL_BASIC   0/473
WHITEHOUSE   0/5187
WIN2000   0/101
WIN32   0/30
WIN95   0/4291
WIN95_OLD1   0/70272
WINDOWS   0/1517
WWB_SYSOP   0/419
WWB_TECH   0/810
ZCC-PUBLIC   0/1
ZEC   4

 
4DOS   0/134
ABORTION   0/7
ALASKA_CHAT   0/506
ALLFIX_FILE   0/1313
ALLFIX_FILE_OLD1   0/7997
ALT_DOS   0/152
AMATEUR_RADIO   0/1039
AMIGASALE   0/14
AMIGA   0/331
AMIGA_INT   0/1
AMIGA_PROG   0/20
AMIGA_SYSOP   0/26
ANIME   0/15
ARGUS   0/924
ASCII_ART   0/340
ASIAN_LINK   0/651
ASTRONOMY   0/417
AUDIO   0/92
AUTOMOBILE_RACING   0/105
BABYLON5   0/17862
BAG   135
BATPOWER   0/361
BBBS.ENGLISH   0/382
BBSLAW   0/109
BBS_ADS   0/5290
BBS_INTERNET   0/507
BIBLE   0/3563
BINKD   0/1119
BINKLEY   0/215
BLUEWAVE   0/2173
CABLE_MODEMS   0/25
CBM   0/46
CDRECORD   0/66
CDROM   0/20
CLASSIC_COMPUTER   0/378
COMICS   0/15
CONSPRCY   0/899
COOKING   41026
COOKING_OLD1   0/24719
COOKING_OLD2   0/40862
COOKING_OLD3   0/37489
COOKING_OLD4   0/35496
COOKING_OLD5   9370
C_ECHO   0/189
C_PLUSPLUS   0/31
DIRTY_DOZEN   0/201
DOORGAMES   0/2253
DOS_INTERNET   0/196
duplikat   6102
ECHOLIST   0/18295
EC_SUPPORT   187/318
ELECTRONICS   0/359
ELEKTRONIK.GER   1534
ENET.LINGUISTIC   0/13
ENET.POLITICS   0/4
ENET.SOFT   0/11701
ENET.SYSOP   34255
ENET.TALKS   0/32
ENGLISH_TUTOR   0/2000
EVOLUTION   0/1335
FDECHO   0/217
FDN_ANNOUNCE   0/7068
FIDONEWS   24978
FIDONEWS_OLD1   0/49742
FIDONEWS_OLD2   0/35949
FIDONEWS_OLD3   0/30874
FIDONEWS_OLD4   0/37224
FIDO_SYSOP   12920
FIDO_UTIL   0/180
FILEFIND   0/209
FILEGATE   0/212
Möte HAM, 16617 texter
 lista första sista föregående nästa
Text 5473, 993 rader
Skriven 2012-08-17 00:01:16 av Amsat List (1:323/120.0)
Ärende: [keps] orb12229.amsa
============================
[keps] orb12229.amsa

Sender: keps-bounces@amsat.org
Return-Path: <keps-bounces@amsat.org>
X-Rcpt: craig.healy@chowda.com
X-UIDL: 1345174884.5530

SB KEPS @ AMSAT  $ORB12229.O
Orbital Elements  12229.OSCAR

HR AMSAT ORBITAL ELEMENTS FOR OSCAR SATELLITES
FROM WA5QGD FORT WORTH,TX August 16, 2012
Send SUBSCRIBE KEPS/UNSUBSCRIBE KEPS to majordomo@amsat.org only
BID: ORB12229.O
TO ALL RADIO AMATEURS BT

Satellite: AO-07
Catalog number: 07530
Epoch time:      12229.63791937
Element set:     457
Inclination:      101.4077 deg
RA of node:       224.5250 deg
Eccentricity:    0.0011696
Arg of perigee:   162.6981 deg
Mean anomaly:     197.4486 deg
Mean motion:   12.53590678 rev/day
Decay rate:       -2.7e-07 rev/day^2
Epoch rev:           72762
Checksum:              325

Satellite: FO-29
Catalog number: 24278
Epoch time:      12228.86218974
Element set:     914
Inclination:      098.5871 deg
RA of node:       321.7164 deg
Eccentricity:    0.0349762
Arg of perigee:   234.7890 deg
Mean anomaly:     122.0040 deg
Mean motion:   13.52986448 rev/day
Decay rate:       -4.9e-07 rev/day^2
Epoch rev:           79002
Checksum:              336

Satellite: SO-33
Catalog number: 25509
Epoch time:      12229.70739051
Element set:     300
Inclination:      031.4362 deg
RA of node:       351.1857 deg
Eccentricity:    0.0352103
Arg of perigee:   012.7921 deg
Mean anomaly:     348.1374 deg
Mean motion:   14.28799940 rev/day
Decay rate:       1.87e-06 rev/day^2
Epoch rev:           72131
Checksum:              286

Satellite: RS-22
Catalog number: 27939
Epoch time:      12229.75503866
Element set:     637
Inclination:      097.8091 deg
RA of node:       067.4558 deg
Eccentricity:    0.0014624
Arg of perigee:   074.1921 deg
Mean anomaly:     286.0895 deg
Mean motion:   14.64095800 rev/day
Decay rate:       3.33e-06 rev/day^2
Epoch rev:           47474
Checksum:              336

Satellite: VO-52
Catalog number: 28650
Epoch time:      12228.63127798
Element set:     181
Inclination:      097.5946 deg
RA of node:       256.6730 deg
Eccentricity:    0.0025676
Arg of perigee:   203.5497 deg
Mean anomaly:     156.4553 deg
Mean motion:   14.83099362 rev/day
Decay rate:       4.69e-06 rev/day^2
Epoch rev:           39378
Checksum:              354

Satellite: HO-68
Catalog number: 36122
Epoch time:      12229.71730422
Element set:     744
Inclination:      100.3565 deg
RA of node:       287.8298 deg
Eccentricity:    0.0007402
Arg of perigee:   333.6144 deg
Mean anomaly:     026.4589 deg
Mean motion:   13.16297423 rev/day
Decay rate:       -4.4e-07 rev/day^2
Epoch rev:           12835
Checksum:              297

/EX
SB KEPS @ AMSAT  $ORB12229.D
Orbital Elements  12229.MICROS

HR AMSAT ORBITAL ELEMENTS FOR THE MICROSATS
FROM WA5QGD FORT WORTH,TX August 16, 2012
Send SUBSCRIBE KEPS/UNSUBSCRIBE KEPS to majordomo@amsat.org only
BID: ORB12229.D
TO ALL RADIO AMATEURS BT

Satellite: UO-11
Catalog number: 14781
Epoch time:      12228.93460168
Element set:    0961
Inclination:      097.9497 deg
RA of node:       287.9179 deg
Eccentricity:    0.0008551
Arg of perigee:   191.8473 deg
Mean anomaly:     168.2540 deg
Mean motion:   14.80521552 rev/day
Decay rate:       3.80e-06 rev/day^2
Epoch rev:           52877
Checksum:              340

Satellite: AO-16
Catalog number: 20439
Epoch time:      12229.80384363
Element set:     535
Inclination:      098.4339 deg
RA of node:       171.4912 deg
Eccentricity:    0.0010971
Arg of perigee:   345.0089 deg
Mean anomaly:     015.0772 deg
Mean motion:   14.32074242 rev/day
Decay rate:        8.8e-07 rev/day^2
Epoch rev:           17867
Checksum:              304

Satellite: LO-19
Catalog number: 20442
Epoch time:      12228.90950712
Element set:    0476
Inclination:      098.3982 deg
RA of node:       173.4181 deg
Eccentricity:    0.0011419
Arg of perigee:   339.4832 deg
Mean anomaly:     020.5899 deg
Mean motion:   14.32291115 rev/day
Decay rate:       1.10e-06 rev/day^2
Epoch rev:           17873
Checksum:              299

Satellite: AO-27
Catalog number: 22825
Epoch time:      12228.81243222
Element set:     173
Inclination:      098.5740 deg
RA of node:       170.7095 deg
Eccentricity:    0.0009500
Arg of perigee:   104.2784 deg
Mean anomaly:     255.9492 deg
Mean motion:   14.29477479 rev/day
Decay rate:        7.6e-07 rev/day^2
Epoch rev:           98499
Checksum:              333

Satellite: IO-26
Catalog number: 22826
Epoch time:      12228.87184984
Element set:    0939
Inclination:      098.5722 deg
RA of node:       171.1225 deg
Eccentricity:    0.0009842
Arg of perigee:   096.9173 deg
Mean anomaly:     263.3127 deg
Mean motion:   14.29752633 rev/day
Decay rate:        9.9e-07 rev/day^2
Epoch rev:           98513
Checksum:              344

Satellite: GO-32
Catalog number: 25397
Epoch time:      12229.50428062
Element set:     850
Inclination:      098.3663 deg
RA of node:       205.2626 deg
Eccentricity:    0.0002315
Arg of perigee:   101.8354 deg
Mean anomaly:     258.3072 deg
Mean motion:   14.23286755 rev/day
Decay rate:       -7.7e-07 rev/day^2
Epoch rev:           73260
Checksum:              292

Satellite: NO-44
Catalog number: 26931
Epoch time:      12228.77844453
Element set:    0115
Inclination:      067.0543 deg
RA of node:       326.7529 deg
Eccentricity:    0.0007052
Arg of perigee:   255.5951 deg
Mean anomaly:     104.4358 deg
Mean motion:   14.29821238 rev/day
Decay rate:       2.01e-06 rev/day^2
Epoch rev:           56776
Checksum:              307

